Temperature
16 17 17 17 16 16 16 16 16 16 16 15 15 15 15 15 15 15 15 15 15 15 14 14 15 15 15 15 15 15 15 15 15 15 14 14 14 14 14 14 14 14 14
17 17 17 16 16 16 16 15 15 15 15 15 15 15 15 15 15 15 15 15 15 14 14 14 14 14 15 15 15 15 15 15 14 14 14 14 14 14 14 14 14 14 14
16 17 16 16 16 16 15 15 15 15 15 15 15 15 15 15 14 15 14 14 14 14 14 14 14 14 14 14 14 14 14 14 14 14 14 13 13 14 14 14 13 13 13
16 16 16 16 16 15 15 15 15 15 15 15 15 15 15 14 14 14 14 14 14 14 14 14 14 14 14 14 14 14 14 14 13 13 13 13 13 13 13 13 13 13 13
16 16 16 16 15 15 15 15 15 15 15 15 15 14 14 14 14 14 14 14 14 14 14 14 14 14 14 14 14 14 14 13 13 13 13 13 13 13 13 13 13 13 13
15 15 15 15 15 15 15 15 15 15 14 14 14 14 14 14 14 14 14 14 14 14 14 14 13 13 13 13 14 13 13 13 13 13 13 13 13 13 13 13 13 13 13
15 15 15 15 15 15 15 15 15 14 14 14 14 14 14 14 14 14 14 14 14 14 14 13 13 13 13 13 13 13 13 13 13 13 13 13 13 13 13 13 13 13 13
15 15 15 15 15 14 14 15 14 14 14 14 14 14 14 14 14 14 14 14 14 13 14 13 13 13 13 13 13 13 13 13 13 13 13 13 13 13 13 13 13 12 12
15 14 14 14 14 14 14 14 14 14 14 14 14 14 14 13 14 14 14 14 13 13 13 13 13 13 13 13 13 13 12 12 12 12 12 13 12 13 13 13 13 12 12
14 14 14 14 14 14 14 14 14 14 14 14 14 14 14 13 13 13 14 13 13 13 13 13 13 13 13 13 13 13 12 12 12 12 12 12 12 12 13 12 12 12 12
13 13 13 13 13 14 14 14 14 14 13 13 13 13 13 13 13 13 13 13 13 13 13 13 13 13 13 13 13 12 12 12 12 12 12 12 12 12 12 12 12 12 12
13 13 13 13 13 13 13 13 13 13 13 13 13 13 13 13 13 13 13 13 13 13 13 13 13 12 12 13 12 12 12 12 12 12 12 12 12 12 12 12 12 12 12
13 13 13 13 13 13 13 13 13 13 13 13 12 12 12 12 12 12 12 12 12 12 12 12 12 12 12 12 12 12 12 12 12 12 12 12 12 12 12 12 12 12 12
13 13 13 13 13 13 13 13 13 13 12 12 12 12 12 12 12 12 12 12 12 12 12 12 12 12 12 12 12 12 11 11 11 12 11 12 11 11 11 11 11 12 12
12 12 12 12 12 12 12 12 12 12 12 12 12 12 12 12 12 12 12 12 12 12 12 12 12 12 11 11 11 11 11 11 11 11 11 11 11 11 11 11 11 11 11
12 12 12 12 12 12 12 12 12 12 12 12 12 12 11 11 11 11 11 11 11 11 11 11 11 11 11 11 11 11 11 11 11 11 11 11 11 11 11 11 11 11 11
12 12 12 12 12 12 12 12 12 12 12 12 12 11 11 11 11 11 11 11 11 11 11 11 11 11 11 11 11 11 11 11 11 11 11 11 11 11 11 11 11 11 11
11 11 11 11 11 11 11 11 11 11 11 11 11 11 11 11 11 11 11 11 11 10 10 10 10 10 10 10 10 11 11 11 11 11 11 11 11 11 11 11 11 11 11
11 11 11 11 11 11 11 11 11 11 11 11 11 11 11 11 11 11 11 11 10 10 10 10 10 10 10 10 10 10 10 10 11 10 10 11 11 11 11 10 10 10 10
10 10 11 11 10 10 10 10 10 10 11 11 11 11 11 10 10 10 10 10 10 10 10 10 10 10 10 10 10 10 10 10 10 10 10 10 10 10 10 10 10 10 10
10 10 10 10 10 10 10 10 10 10 10 10 10 10 10 10 10 10 10 10 10 10 10 10 9 9 9 9 9 9 9 10 10 10 10 10 10 10 10 10 10 10 10
9 9 9 9 10 10 10 10 10 10 10 10 10 10 10 10 10 10 10 10 10 10 9 9 9 9 9 9 8 8 8 9 9 9 10 10 10 10 10 10 10 9 9
9 9 9 9 9 9 9 9 9 9 9 9 9 9 10 9 9 10 10 10 10 9 9 9 9 9 9 8 8 8 8 8 8 9 9 9 9 9 9 9 9 9 9
8 8 8 8 9 9 9 9 9 9 9 9 9 9 9 9 9 9 9 9 9 9 9 9 9 8 8 8 8 8 8 8 8 8 8 9 9 9 9 9 9 9 8
8 8 8 8 8 8 8 8 8 8 8 8 8 9 9 9 9 9 9 9 9 9 9 8 8 8 8 8 8 8 8 8 8 8 8 8 8 8 8 8 8 8 8
7 7 7 7 7 8 8 8 8 8 8 8 8 8 8 8 8 8 8 8 9 9 9 8 8 8 8 8 8 8 8 7 8 8 7 7 7 8 8 8 8 8 8
Wind_Speed
7 9 11 11 11 10 10 10 10 11 11 11 11 11 11 11 12 12 12 12 12 12 12 13 13 13 14 14 14 14 14 14 15 14 14 13 14 14 14 13 13 13 15
9 11 12 11 11 11 10 10 10 10 11 11 11 11 11 11 11 11 11 11 11 11 11 12 12 13 13 13 13 13 12 12 12 12 12 13 13 13 13 13 12 12 13
11 12 12 11 11 11 11 10 10 10 10 11 11 11 11 11 10 11 10 10 10 11 11 11 11 11 12 12 12 11 11 11 10 10 10 10 12 13 13 12 12 13 13
11 12 11 11 11 11 11 11 10 10 10 10 10 11 11 10 10 10 10 10 10 11 11 11 11 11 11 12 11 10 9 8 8 8 9 10 11 11 12 13 12 12 12
10 11 12 12 11 10 11 12 11 10 10 10 10 11 10 10 10 9 9 10 10 10 11 10 10 11 11 11 10 9 7 7 6 8 10 11 11 11 11 12 12 12 11
9 11 12 12 11 10 11 11 10 10 10 10 10 10 10 10 9 9 9 9 10 10 10 10 10 10 10 9 9 7 6 5 6 8 10 11 11 10 10 11 11 11 10
9 10 12 11 11 10 10 11 10 10 10 10 10 10 10 9 9 9 9 9 10 9 9 9 9 8 9 8 8 6 4 5 6 9 10 11 10 10 9 10 10 10 9
9 10 11 11 10 10 10 10 11 10 10 9 10 10 10 9 9 9 9 9 9 9 9 8 8 8 8 8 7 4 3 3 5 8 10 10 9 9 9 9 9 9 9
8 9 8 9 9 9 9 10 11 10 10 9 10 10 10 9 9 9 9 9 9 9 8 8 7 8 8 7 5 3 2 3 4 6 8 9 8 8 8 8 8 8 8
7 8 7 7 7 7 7 8 11 11 10 10 10 10 10 9 9 9 9 9 8 8 8 7 7 7 7 6 5 2 1 2 3 7 8 8 7 7 7 8 8 8 7
4 5 6 6 6 6 6 7 10 11 11 11 10 11 10 9 9 8 8 9 8 8 7 7 6 6 6 5 4 2 1 1 6 7 7 7 7 7 6 6 6 6 6
4 4 5 5 5 6 6 6 7 9 10 10 10 10 8 8 8 8 9 9 8 7 7 7 7 6 5 4 4 3 2 2 7 6 7 7 6 6 5 5 5 5 5
4 4 4 4 5 5 4 5 4 6 8 9 10 10 8 7 8 8 8 8 7 6 6 6 6 5 5 4 3 3 1 3 6 6 6 7 6 5 4 4 4 4 4
4 5 4 4 4 4 4 4 4 4 5 6 8 10 7 5 5 6 6 7 7 6 5 5 4 4 4 4 4 2 2 3 6 6 6 6 5 4 3 3 3 3 3
4 5 5 5 5 5 4 4 4 4 5 6 7 9 8 5 5 5 5 6 6 6 6 4 4 3 3 3 3 2 2 3 5 6 6 5 4 4 3 3 2 2 2
4 4 4 5 5 5 5 5 4 4 5 6 7 8 9 7 5 5 4 4 5 6 6 5 4 3 2 2 2 2 2 3 4 6 7 5 4 4 4 3 2 1 2
5 4 4 5 5 5 5 5 5 5 5 6 6 8 8 8 7 6 5 4 4 6 6 4 3 3 2 1 1 1 2 2 3 5 6 6 5 4 4 3 3 2 2
4 4 4 4 4 5 5 5 4 5 5 6 7 8 8 9 8 6 5 4 5 5 4 3 2 1 2 1 1 1 1 1 1 3 5 6 6 5 4 4 3 3 2
4 4 4 4 4 4 5 5 4 4 5 5 6 7 8 9 9 7 5 5 6 4 3 3 2 2 2 1 1 1 1 1 2 2 3 5 5 6 6 5 5 4 4
4 4 4 4 4 4 4 4 4 3 4 5 6 7 8 8 9 7 6 6 6 4 3 3 3 2 2 2 1 1 1 2 2 3 3 4 5 5 6 6 5 5 5
3 4 5 5 5 4 4 5 5 5 5 5 5 8 9 9 9 7 5 6 6 5 5 4 3 3 2 1 1 1 2 2 3 3 3 3 4 5 5 6 6 5 5
4 4 5 5 6 5 5 5 5 5 5 5 5 6 8 9 9 8 7 6 6 5 6 5 4 3 2 3 2 1 1 2 2 3 3 3 4 5 5 5 5 5 5
3 4 4 5 5 5 5 4 4 4 3 4 5 5 6 8 8 8 8 7 6 6 6 6 6 5 4 3 3 3 2 3 2 2 3 3 3 3 3 4 5 5 5
4 4 4 5 5 6 5 5 6 6 6 5 5 5 5 7 7 8 8 8 7 6 6 6 6 4 5 4 3 3 2 2 2 2 2 2 3 3 4 4 4 5 5
3 3 4 4 5 5 6 6 6 6 5 4 5 6 6 6 7 8 8 8 7 6 6 6 6 5 5 4 3 2 3 2 2 2 3 3 3 3 3 3 4 4 5
3 2 3 4 4 5 5 5 6 7 6 6 6 7 6 5 5 7 7 7 7 7 7 7 6 6 5 5 4 3 3 2 3 3 3 3 4 3 3 2 3 4 5
Wind_Direction
121 131 136 135 135 132 130 130 126 124 124 122 119 117 116 113 113 111 108 104 102 100 98 96 94 91 86 83 80 77 75 74 73 74 74 74 74 75 73 70 71 69 72
130 133 137 135 135 136 135 130 129 126 125 123 123 122 120 119 115 114 111 108 104 103 101 99 96 94 90 87 84 81 79 78 77 75 75 75 74 74 73 70 72 72 74
126 131 139 138 136 139 135 130 130 130 129 126 125 125 125 124 120 116 114 112 109 106 103 100 97 95 94 91 88 84 81 80 77 73 75 76 78 76 75 75 74 75 74
126 131 138 140 139 139 138 135 134 134 133 131 128 125 126 125 123 119 119 116 114 110 104 101 99 97 98 95 91 87 83 77 69 65 72 73 78 81 78 76 76 74 74
124 129 135 140 141 140 140 139 139 135 136 135 133 129 126 124 123 120 120 120 118 114 109 107 104 101 100 98 95 90 80 65 49 67 75 77 79 82 80 77 75 74 75
127 125 133 140 140 139 141 140 140 137 136 137 136 134 131 125 122 122 121 124 122 118 115 111 110 106 104 102 99 93 78 59 47 75 76 79 79 82 81 79 75 71 71
129 125 136 141 141 143 142 144 142 140 138 138 139 137 133 127 124 125 122 125 125 124 122 118 117 114 111 107 101 91 69 50 67 76 78 81 82 85 83 78 73 70 67
127 125 136 145 145 149 147 149 147 145 143 141 143 140 136 133 133 131 130 130 130 127 128 125 123 122 117 111 105 90 54 46 73 81 84 85 88 88 86 81 75 71 68
118 122 129 143 147 149 153 154 151 148 146 144 145 143 141 140 140 138 136 135 136 133 129 127 128 129 123 117 113 100 55 38 55 89 93 92 94 90 88 84 80 75 69
118 126 136 142 146 148 151 159 155 153 152 149 145 142 140 139 139 138 137 134 135 136 135 132 132 131 130 127 128 131 37 16 83 85 90 99 102 94 92 89 86 77 70
123 131 142 149 147 149 156 159 159 158 158 151 148 147 146 147 145 142 142 140 139 139 141 140 140 136 135 142 161 189 259 66 96 89 93 109 109 101 93 91 88 82 75
155 149 148 155 155 152 163 156 167 164 161 160 157 155 161 159 156 153 147 143 144 145 147 150 153 150 148 158 193 215 227 124 105 101 106 117 114 107 97 95 92 88 81
174 164 163 163 160 158 159 159 169 170 168 170 167 165 167 161 149 138 141 145 148 151 154 153 157 169 171 162 173 205 180 108 103 103 115 126 127 119 110 104 102 98 92
174 177 166 169 168 166 161 164 170 175 171 168 171 167 167 155 148 147 150 156 158 164 164 157 169 178 173 167 177 173 131 104 109 108 112 132 140 138 129 120 121 115 114
187 184 173 170 176 174 170 174 176 184 176 170 172 172 169 156 156 154 157 161 164 169 166 169 178 175 168 165 174 175 145 125 126 126 123 136 147 153 157 152 145 142 134
200 189 179 182 181 178 178 179 181 187 181 170 171 173 169 158 157 159 162 163 166 167 168 175 178 161 165 152 172 165 145 139 135 137 141 149 161 169 177 175 176 177 172
201 187 187 197 185 183 186 189 185 188 185 174 175 177 173 166 164 162 163 165 165 165 166 173 172 155 162 160 189 157 123 133 141 145 152 159 166 178 184 187 193 202 207
193 188 193 209 195 190 193 195 190 188 185 178 175 177 177 173 169 164 165 169 168 165 162 166 162 157 176 187 207 175 131 124 161 167 166 165 165 168 177 191 197 213 225
195 193 188 199 199 201 200 199 196 190 190 181 177 180 179 174 172 168 172 171 169 165 168 177 167 169 178 182 182 203 191 187 216 203 183 170 168 166 168 185 195 210 226
196 194 194 194 202 208 206 200 199 205 198 184 182 186 181 176 175 173 174 174 170 171 177 180 176 172 183 183 193 243 236 212 214 218 214 180 175 178 180 185 187 205 223
201 199 198 196 205 200 199 200 200 207 203 193 193 188 182 179 179 177 180 178 177 183 184 183 178 172 186 161 95 302 290 253 227 213 209 196 189 192 195 191 188 192 205
212 207 207 209 207 209 208 207 205 205 206 196 193 190 185 183 184 184 185 187 186 184 183 186 179 184 196 173 166 170 235 279 264 230 211 203 202 192 199 208 199 192 189
229 222 221 221 217 212 213 210 208 200 200 199 196 196 192 184 185 182 185 187 190 188 191 193 189 184 195 201 188 180 189 217 269 253 233 214 206 204 206 202 199 203 203
241 233 231 231 223 214 206 204 207 209 209 203 195 192 189 185 184 183 183 187 193 192 195 198 197 193 184 203 220 223 218 188 188 246 265 243 233 226 219 215 207 210 210
272 250 242 244 234 223 210 207 213 222 221 197 188 187 192 194 190 185 183 184 193 193 194 197 197 197 197 202 206 217 243 254 226 218 251 251 258 250 233 221 210 210 213
292 271 258 255 248 232 219 212 214 219 213 201 195 193 195 199 197 189 186 188 192 192 193 195 195 198 203 206 208 204 205 209 219 219 240 245 251 255 252 237 224 218 221
Height
1496 1497 1499 1501 1503 1505 1507 1508 1510 1511 1513 1514 1515 1517 1518 1519 1520 1521 1522 1523 1523 1524 1525 1526 1526 1527 1527 1528 1528 1529 1529 1530 1530 1530 1530 1531 1531 1532 1532 1532 1532 1532 1533
1495 1497 1499 1501 1503 1505 1507 1508 1510 1512 1513 1514 1516 1517 1518 1519 1520 1521 1523 1523 1524 1525 1526 1526 1527 1528 1528 1529 1529 1530 1530 1531 1531 1531 1532 1532 1532 1533 1533 1533 1534 1534 1534
1494 1496 1498 1501 1503 1505 1507 1508 1510 1511 1513 1515 1516 1517 1519 1520 1521 1522 1523 1524 1525 1526 1526 1527 1528 1528 1529 1529 1530 1531 1531 1532 1532 1533 1533 1533 1534 1534 1534 1534 1534 1535 1535
1494 1496 1498 1500 1502 1504 1506 1508 1510 1511 1513 1515 1516 1517 1519 1520 1521 1522 1523 1524 1525 1526 1527 1528 1528 1529 1530 1530 1531 1532 1532 1533 1534 1534 1534 1534 1535 1535 1535 1535 1535 1535 1535
1494 1496 1498 1500 1502 1504 1506 1508 1510 1511 1513 1514 1516 1517 1519 1520 1521 1523 1524 1525 1526 1527 1527 1528 1529 1530 1530 1531 1532 1533 1533 1534 1534 1535 1535 1535 1536 1536 1536 1536 1536 1536 1536
1494 1495 1497 1500 1502 1503 1505 1507 1509 1511 1513 1514 1516 1517 1519 1520 1521 1522 1524 1525 1526 1527 1528 1528 1529 1530 1531 1532 1532 1533 1534 1534 1535 1535 1536 1536 1536 1537 1537 1537 1537 1537 1537
1494 1495 1497 1499 1501 1503 1505 1507 1509 1511 1513 1514 1516 1517 1518 1520 1521 1522 1523 1525 1526 1527 1528 1528 1529 1530 1531 1532 1533 1534 1534 1535 1535 1536 1536 1537 1537 1537 1537 1537 1537 1537 1537
1493 1495 1497 1499 1501 1502 1504 1506 1508 1510 1512 1514 1515 1516 1518 1519 1521 1522 1523 1524 1525 1526 1527 1528 1529 1530 1531 1532 1533 1534 1534 1535 1536 1536 1536 1537 1537 1537 1537 1537 1537 1537 1537
1493 1494 1495 1498 1500 1502 1503 1505 1507 1509 1511 1513 1514 1516 1517 1519 1520 1521 1522 1524 1525 1526 1527 1528 1529 1530 1531 1532 1533 1534 1534 1535 1536 1536 1536 1537 1537 1538 1537 1537 1537 1537 1537
1492 1493 1494 1496 1498 1500 1502 1504 1506 1508 1510 1511 1513 1514 1516 1518 1519 1520 1521 1523 1524 1525 1526 1527 1529 1530 1531 1532 1533 1534 1535 1535 1536 1536 1536 1537 1537 1537 1537 1537 1537 1537 1537
1491 1492 1493 1495 1497 1498 1500 1502 1504 1506 1508 1510 1511 1513 1515 1516 1517 1519 1520 1522 1523 1524 1525 1527 1528 1529 1530 1531 1532 1533 1534 1535 1535 1536 1536 1536 1537 1537 1537 1537 1537 1537 1537
1489 1490 1492 1493 1495 1496 1498 1500 1502 1504 1506 1508 1510 1511 1513 1514 1516 1517 1519 1520 1522 1523 1524 1526 1527 1528 1529 1530 1532 1533 1533 1534 1534 1535 1536 1536 1536 1536 1536 1537 1536 1536 1536
1487 1488 1490 1491 1493 1494 1496 1498 1500 1502 1504 1506 1508 1509 1511 1513 1514 1515 1517 1519 1520 1522 1523 1525 1526 1527 1528 1529 1531 1532 1532 1533 1533 1534 1534 1535 1535 1536 1536 1536 1536 1536 1535
1485 1486 1487 1489 1491 1492 1494 1496 1497 1499 1501 1503 1505 1507 1509 1511 1512 1513 1515 1516 1518 1520 1521 1523 1524 1526 1527 1528 1529 1530 1531 1532 1532 1533 1533 1534 1534 1535 1535 1535 1535 1534 1534
1482 1483 1484 1486 1488 1490 1491 1493 1495 1497 1498 1500 1503 1505 1507 1508 1510 1511 1513 1514 1516 1518 1520 1521 1522 1524 1525 1526 1528 1529 1530 1530 1531 1531 1532 1532 1533 1533 1533 1533 1533 1533 1532
1479 1480 1482 1483 1485 1487 1488 1490 1492 1494 1496 1498 1500 1502 1504 1506 1507 1509 1511 1512 1514 1515 1517 1519 1521 1522 1523 1525 1526 1527 1528 1528 1529 1529 1530 1530 1531 1531 1531 1532 1532 1532 1531
1476 1477 1478 1480 1482 1483 1485 1487 1489 1491 1493 1494 1496 1499 1501 1503 1505 1507 1508 1510 1511 1513 1515 1517 1518 1520 1521 1522 1523 1525 1525 1526 1526 1527 1527 1528 1528 1529 1529 1529 1530 1529 1529
1472 1473 1475 1477 1478 1480 1482 1483 1485 1487 1489 1491 1493 1495 1497 1500 1502 1504 1505 1507 1509 1511 1512 1514 1516 1517 1518 1520 1521 1522 1522 1523 1524 1524 1525 1525 1526 1526 1526 1527 1527 1527 1527
1469 1470 1471 1473 1474 1476 1478 1480 1482 1483 1485 1487 1490 1492 1494 1496 1498 1500 1502 1504 1506 1508 1509 1511 1513 1514 1516 1517 1518 1519 1519 1520 1521 1521 1522 1522 1523 1523 1523 1524 1524 1524 1524
1466 1466 1467 1469 1470 1472 1474 1476 1478 1479 1481 1483 1486 1488 1490 1492 1495 1497 1499 1501 1503 1504 1506 1508 1509 1511 1513 1514 1515 1516 1516 1516 1517 1518 1519 1519 1520 1520 1520 1521 1521 1521 1521
1462 1463 1464 1465 1466 1468 1470 1471 1472 1474 1476 1479 1481 1484 1486 1488 1491 1493 1495 1497 1499 1500 1502 1504 1506 1507 1509 1511 1512 1512 1512 1513 1513 1514 1515 1515 1516 1517 1517 1517 1517 1517 1517
1458 1459 1459 1460 1462 1463 1465 1467 1468 1471 1472 1474 1477 1479 1482 1484 1486 1489 1491 1493 1495 1496 1498 1500 1502 1504 1505 1507 1509 1509 1509 1510 1509 1510 1511 1511 1512 1513 1513 1513 1513 1513 1513
1454 1455 1455 1456 1457 1459 1461 1463 1465 1467 1468 1470 1472 1474 1477 1479 1482 1484 1486 1489 1490 1492 1494 1496 1498 1500 1501 1503 1505 1507 1507 1505 1506 1505 1506 1507 1508 1508 1509 1509 1509 1509 1509
1450 1451 1451 1452 1453 1454 1456 1457 1459 1460 1461 1463 1466 1469 1472 1475 1477 1479 1482 1484 1486 1487 1489 1491 1493 1495 1497 1498 1500 1502 1504 1503 1504 1502 1502 1502 1503 1504 1504 1505 1505 1505 1504
1446 1446 1447 1447 1448 1450 1452 1453 1455 1456 1457 1459 1462 1464 1467 1470 1473 1475 1477 1479 1480 1483 1485 1487 1489 1491 1492 1494 1495 1497 1499 1500 1500 1500 1498 1498 1498 1499 1499 1500 1501 1501 1500
1442 1442 1442 1443 1444 1445 1447 1449 1450 1451 1453 1455 1456 1459 1461 1464 1467 1469 1471 1473 1475 1477 1479 1481 1484 1486 1487 1489 1491 1492 1494 1495 1495 1496 1495 1494 1494 1494 1495 1496 1496 1496 1496